DW1289 Weather Reports


time (UTC)temp
F
wind
direction
speed
knots
gust
knots
rain 1hr
in
rain 24hr
in
rain mn
in
humidity
%
barometer
mb
20260906165016 78 45 3.5 8.7 0.00 0.00 0.00 81 1015.5
20260906164016 78 68 2.6 7.8 0.00 0.00 0.00 82 1015.6
20260906163016 77 45 2.6 7.8 0.00 0.00 0.00 82 1015.7
20260906162016 77 45 1.7 4.3 0.00 0.00 0.00 84 1015.6
20260906161036 77 45 2.6 7.0 0.00 0.00 0.00 84 1015.5
20260906160016 76 68 3.5 8.7 0.00 0.00 0.00 84 1015.6
20260906155016 76 45 2.6 7.8 0.00 0.00 0.00 85 1015.9
20260906154016 76 45 2.6 5.2 0.00 0.00 0.00 85 1015.8
20260906153016 76 45 2.6 7.0 0.00 0.00 0.00 85 1015.5
20260906152016 76 45 2.6 7.8 0.00 0.00 0.00 85 1015.5
20260906151016 76 68 2.6 7.8 0.00 0.00 0.00 86 1015.4
20260906150056 76 45 2.6 8.7 0.00 0.00 0.00 86 1015.3
20260906145016 76 45 1.7 7.0 0.00 0.00 0.00 86 1015.3
20260906144016 76 45 2.6 7.8 0.00 0.00 0.00 86 1015.4
20260906143036 76 68 2.6 7.8 0.00 0.00 0.00 86 1015.4
20260906142016 76 68 2.6 8.7 0.00 0.00 0.00 86 1015.3
20260906141016 76 45 1.7 5.2 0.00 0.00 0.00 87 1015.3
20260906140016 76 45 1.7 6.1 0.00 0.00 0.00 87 1015.1
20260906135016 76 45 2.6 6.1 0.00 0.00 0.00 87 1015.0
20260906134036 76 45 1.7 5.2 0.00 0.00 0.00 87 1014.9
20260906133016 76 45 2.6 6.1 0.00 0.00 0.00 87 1014.8
20260906132056 76 68 1.7 6.1 0.00 0.00 0.00 87 1014.8
20260906131016 76 45 2.6 5.2 0.00 0.00 0.00 87 1014.9
20260906130016 76 45 1.7 5.2 0.00 0.00 0.00 88 1014.7
20260906125016 75 45 2.6 7.0 0.00 0.00 0.00 88 1014.6
20260906124016 75 45 1.7 7.8 0.00 0.00 0.00 88 1014.4
20260906123016 75 45 1.7 5.2 0.00 0.00 0.00 88 1014.5
20260906122036 75 45 1.7 6.1 0.00 0.00 0.00 88 1014.5
20260906121016 75 45 1.7 4.3 0.00 0.00 0.00 89 1014.2
20260906120016 75 45 1.7 5.2 0.00 0.00 0.00 88 1014.1
20260906115016 75 68 2.6 7.0 0.00 0.00 0.00 88 1014.1
20260906114016 75 45 1.7 5.2 0.00 0.00 0.00 88 1013.9
20260906113036 75 68 1.7 5.2 0.00 0.00 0.00 88 1013.9
20260906112016 75 45 1.7 7.8 0.00 0.00 0.00 88 1013.7
20260906111016 75 45 1.7 9.6 0.00 0.00 0.00 87 1013.5
20260906110016 75 45 2.6 6.1 0.00 0.00 0.00 87 1013.5
20260906105016 76 45 1.7 5.2 0.00 0.00 0.00 87 1013.5
20260906104036 76 45 2.6 6.1 0.00 0.00 0.00 86 1013.5
20260906103016 76 23 0.9 5.2 0.00 0.00 0.00 85 1013.4
20260906102016 76 45 1.7 5.2 0.00 0.00 0.00 85 1013.3
20260906101016 76 45 1.7 4.3 0.00 0.00 0.00 85 1013.3
20260906100016 76 45 0.9 4.3 0.00 0.00 0.00 85 1013.1
20260906095016 76 45 0.9 2.6 0.00 0.00 0.00 85 1012.9
20260906094056 76 45 0.9 2.6 0.00 0.00 0.00 85 1012.8
20260906093016 76 0.0 3.5 0.00 0.00 0.00 84 1012.6
20260906092016 77 0.0 2.6 0.00 0.00 0.00 84 1012.7
20260906091016 77 0.0 0.9 0.00 0.00 0.00 83 1012.6
20260906090016 77 0.0 1.7 0.00 0.00 0.00 83 1012.4
20260906085016 77 0.0 1.7 0.00 0.00 0.00 83 1012.5
20260906084016 77 45 0.9 4.3 0.00 0.00 0.00 81 1012.5
20260906083016 77 45 1.7 7.0 0.00 0.00 0.00 81 1012.4
20260906082016 77 45 0.9 5.2 0.00 0.00 0.00 82 1012.5
20260906081016 77 45 0.9 3.5 0.00 0.00 0.00 84 1012.4
20260906080016 77 0.0 0.0 0.00 0.00 0.00 85 1012.5
20260906075016 77 0.0 0.9 0.00 0.00 0.00 85 1012.5
20260906074016 77 0.0 1.7 0.00 0.00 0.00 86 1012.2
20260906073016 78 0.0 0.0 0.00 0.00 0.00 86 1012.2
20260906072016 78 0.0 0.0 0.00 0.00 0.00 86 1012.2
20260906071016 78 0.0 0.0 0.00 0.00 0.00 85 1012.4
20260906070036 78 0.0 0.0 0.00 0.00 0.00 85 1012.6
20260906065056 79 0.0 0.0 0.00 0.00 0.00 85 1012.5
20260906064016 79 0.0 2.6 0.00 0.00 0.00 85 1012.7
20260906063016 79 0.0 0.0 0.00 0.00 0.00 85 1012.8
20260906062016 79 0.0 0.0 0.00 0.00 0.00 85 1012.9
20260906061016 79 0.0 0.0 0.00 0.00 0.00 84 1012.9
20260906060016 79 0.0 0.0 0.00 0.00 0.00 83 1012.7
20260906055016 80 0.0 0.9 0.00 0.00 0.00 83 1012.6
20260906054016 80 0.0 0.0 0.00 0.00 0.00 83 1012.6
20260906053016 80 0.0 1.7 0.00 0.00 0.00 83 1012.5
20260906052016 80 0.0 3.5 0.00 0.00 0.00 83 1012.5
20260906051016 81 0.0 1.7 0.00 0.00 0.00 82 1012.5
20260906050016 81 0.0 0.0 0.00 0.00 0.00 82 1012.5
20260906045016 81 0.0 0.9 0.00 0.00 0.00 82 1012.5
20260906044016 81 0.0 1.7 0.00 0.00 0.00 81 1012.4
20260906043016 81 0.0 0.9 0.00 0.00 0.00 81 1012.2
20260906042016 81 0.0 0.9 0.00 0.00 0.00 81 1012.0
20260906041016 82 0.0 2.6 0.00 0.00 0.00 81 1012.0
20260906040016 82 0.0 0.0 0.00 0.00 0.00 81 1011.8
20260906035016 82 0.0 1.7 0.00 0.00 0.00 81 1011.9
20260906034016 82 248 0.9 1.7 0.00 0.00 0.00 81 1011.8
20260906033037 82 248 0.9 2.6 0.00 0.00 0.00 81 1011.7
20260906032016 83 248 1.7 5.2 0.00 0.00 0.00 81 1011.7
20260906031016 83 248 1.7 4.3 0.00 0.00 0.00 81 1011.8
20260906030016 83 0.0 0.0 0.00 0.00 0.00 79 1011.9
20260906025016 84 0.0 0.0 0.00 0.00 0.00 77 1012.0
20260906024036 84 0.0 0.0 0.00 0.00 0.00 76 1011.9
20260906023036 84 0.0 0.0 0.00 0.00 0.00 75 1011.9
20260906022016 84 0.0 0.0 0.00 0.00 0.00 74 1011.7
20260906021016 85 0.0 0.0 0.00 0.00 0.00 72 1011.4
20260906020016 85 0.0 0.0 0.00 0.00 0.00 72 1011.4
20260906015016 85 0.0 0.0 0.00 0.00 0.00 71 1011.2
20260906014016 86 0.0 0.0 0.00 0.00 0.00 71 1011.0
20260906013016 86 0.0 0.0 0.00 0.00 0.00 70 1010.8
20260906012016 87 0.0 0.0 0.00 0.00 0.00 69 1010.9
20260906011036 87 0.0 0.0 0.00 0.00 0.00 68 1010.8
20260906010036 88 0.0 0.0 0.00 0.00 0.00 67 1010.6
20260906005016 88 0.0 0.0 0.00 0.00 0.00 65 1010.5
20260906004016 89 0.0 0.0 0.00 0.00 0.00 65 1010.7
20260906003016 90 0.0 0.0 0.00 0.00 0.00 64 1010.8
20260906002016 90 0.0 0.9 0.00 0.00 0.00 62 1010.9
20260906001016 91 0.0 1.7 0.00 0.00 0.00 61 1011.1
20260906000036 91 0.0 0.0 0.00 0.00 0.00 60 1011.2
20260905235016 91 0.0 0.0 0.00 0.00 0.00 59 1011.2
20260905234036 92 0.0 0.0 0.00 0.00 0.00 58 1011.2
20260905233016 93 0.0 0.9 0.00 0.00 0.00 57 1011.3
20260905232056 93 0.0 1.7 0.00 0.00 0.00 56 1011.3
20260905231016 94 0.0 2.6 0.00 0.00 0.00 54 1011.1
20260905230016 94 0.0 1.7 0.00 0.00 0.00 53 1011.0
20260905225036 95 270 0.9 2.6 0.00 0.00 0.00 53 1011.0
20260905224016 96 248 1.7 3.5 0.00 0.00 0.00 51 1011.0
20260905223016 97 248 1.7 4.3 0.00 0.00 0.00 50 1010.8
20260905222056 97 248 1.7 5.2 0.00 0.00 0.00 50 1010.9
20260905221036 97 248 1.7 6.1 0.00 0.00 0.00 48 1010.9
20260905220016 98 225 1.7 4.3 0.00 0.00 0.00 48 1010.8
20260905215016 98 225 2.6 6.1 0.00 0.00 0.00 49 1011.1
20260905214016 98 248 1.7 7.8 0.00 0.00 0.00 49 1011.1
20260905213016 98 248 2.6 7.0 0.00 0.00 0.00 47 1011.0
20260905212036 99 248 2.6 7.0 0.00 0.00 0.00 48 1011.1
20260905211016 99 248 1.7 6.1 0.00 0.00 0.00 47 1011.0
20260905210016 99 248 2.6 8.7 0.00 0.00 0.00 48 1011.1
20260905205016 99 248 2.6 7.0 0.00 0.00 0.00 48 1011.1
20260905204016 99 248 0.9 3.5 0.00 0.00 0.00 48 1011.4
20260905203016 99 248 1.7 6.1 0.00 0.00 0.00 49 1011.5
20260905202016 99 248 0.9 6.1 0.00 0.00 0.00 48 1011.7
20260905201016 98 248 1.7 6.1 0.00 0.00 0.00 48 1011.8
20260905200016 98 248 2.6 7.0 0.00 0.00 0.00 49 1011.9
20260905195016 99 248 0.9 3.5 0.00 0.00 0.00 49 1012.1
20260905194016 98 248 1.7 6.1 0.00 0.00 0.00 49 1012.3
20260905193016 98 248 1.7 5.2 0.00 0.00 0.00 49 1012.4
20260905192016 97 225 1.7 4.3 0.00 0.00 0.00 46 1012.6
20260905191036 97 135 1.7 3.5 0.00 0.00 0.00 48 1012.6
20260905190016 97 158 1.7 3.5 0.00 0.00 0.00 47 1013.0
20260905185036 97 248 2.6 6.1 0.00 0.00 0.00 47 1013.1
20260905184016 97 248 1.7 5.2 0.00 0.00 0.00 49 1013.1
20260905183116 97 248 1.7 7.0 0.00 0.00 0.00 50 1013.3
20260905182016 96 248 2.6 7.0 0.00 0.00 0.00 48 1013.4
20260905181016 96 248 2.6 5.2 0.00 0.00 0.00 50 1013.4
20260905180016 95 248 2.6 6.1 0.00 0.00 0.00 51 1013.4
20260905175016 95 248 1.7 7.0 0.00 0.00 0.00 52 1013.5
20260905174016 95 248 1.7 7.0 0.00 0.00 0.00 51 1013.7
20260905173016 95 248 1.7 7.0 0.00 0.00 0.00 52 1013.7
20260905172016 94 248 2.6 8.7 0.00 0.00 0.00 54 1013.9
20260905171136 93 248 1.7 6.1 0.00 0.00 0.00 56 1013.9
20260905170016 93 248 1.7 5.2 0.00 0.00 0.00 55 1014.2